Location: Caltech
(34.1382°N, 118.1253°W)
Time: 23:19:13
(UTC-07:00)

Uosat F - Visible Passes

Search period start: 22 September 2014 00:00
Search period end: 02 October 2014 00:00
Orbit: 751 x 763 km, 98.7° (Epoch: 21 September)

Date Brightness Start Highest point End Pass type
(mag) Time Alt. Az. Time Alt. Az. Time Alt. Az.
22 Sep 13.7 04:11:03 10° NE 04:14:13 17° E 04:17:22 10° SE visible
22 Sep 11.4 05:48:23 10° N 05:53:10 45° WNW 05:57:56 10° SW visible
23 Sep 11.3 05:09:07 10° NNE 05:14:08 70° ESE 05:19:09 10° S visible
24 Sep 13.0 04:30:40 10° NE 04:34:54 27° E 04:39:08 10° SSE visible
24 Sep 12.0 06:09:19 10° NNW 06:13:35 28° WNW 06:17:51 10° SW visible
25 Sep 11.0 05:29:39 10° N 05:34:40 72° WNW 05:39:40 10° SSW visible
26 Sep 12.2 04:50:44 10° NNE 04:55:32 44° E 05:00:19 10° S visible
27 Sep 13.7 04:12:56 10° NE 04:16:13 17° E 04:19:28 10° SE visible
27 Sep 11.4 05:50:23 10° N 05:55:08 44° WNW 05:59:54 10° SW visible
28 Sep 11.3 05:11:05 10° NNE 05:16:07 73° ESE 05:21:08 10° S visible
29 Sep 13.0 04:32:35 10° NE 04:36:54 28° E 04:41:10 10° SSE visible
29 Sep 12.0 06:11:20 10° NNW 06:15:33 28° WNW 06:19:46 10° SW visible
30 Sep 14.1 03:56:40 10° E 03:57:27 10° E 03:58:15 10° E visible
30 Sep 11.0 05:31:37 10° N 05:36:38 70° WNW 05:41:39 10° SSW visible
01 Oct 12.1 04:52:41 10° NNE 04:57:31 45° E 05:02:20 10° S visible
